Location: Dackenheim
(49.5215°N, 8.1854°E)
Time: 19:04:00
(UTC+00:00)

Cosmos 1814 Rocket - Pass Details

Date: 19 May 2025
Orbit: 740 x 783 km, 74.1° (Epoch: 19 June)

Event Time Altitude Azimuth Distance (km) Brightness Sun altitude
Rises 19:45:00 0° 192° (SSW) 3,167 6.9 -5.3°
Reaches altitude 10° 19:47:21 10° 189° (S) 2,251 6.1 -5.6°
Maximum altitude 19:52:23 64° 109° (ESE) 829 4.0 -6.2°
Drops below altitude 10° 19:57:30 10° 29° (NNE) 2,289 6.7 -6.9°
Sets 19:59:54 0° 26° (NNE) 3,225 7.5 -7.2°
